カタログに戻る

ARIANE 5 DEB

SYLDA

運用中GTO
NORAD 27511·DEBRIS·🇫🇷 France

打ち上げ Aug 28, 2002 から Guiana Space Centre

Loading…

TLE

経年Source: Space-Track

元期: Sep 14, 2026, 21:11 UTC

1 27511U 02040D   26257.88282723 -.00000030  00000-0  16035-2 0  9995
2 27511   6.0102  48.7611 7155877 258.0037  19.3155  2.25871232197888

AllMySatでARIANE 5 DEBをリアルタイム追跡

Download on the App Store